Погода в Звериноголовском

Россия / Курганская область     54°27′39″N   64°51′21″E
темп.,
°C
ветер,
м/с
пор.,
м/с
влажн.,
%
обл.,
%
осадки,
мм/ч
давл.,
гПа
погр.,
м
6 мая, чт
чт623:00+19юз4103999 0.0 998195
02:00+12зсз8136085 0.0 1003821
05:00+10зсз713573 0.0 1006837
08:00+10зсз811515 0.0 10081050
11:00+14зсз810385 0.0 10101637
14:00+16зсз8103214 0.0 10112184
17:00+16сз7103069 0.0 10122479
20:00+12сз610415 0.0 1014476
7 мая, пт
пт723:00+9зсз39490 0.0 1017241
02:00+7зсз36600 0.0 1019135
05:00+6з36650 0.0 1021104
08:00+11сз34540 0.0 1022412
11:00+15з33340 0.0 10231228
14:00+18з33280 0.0 10221578
17:00+19з22265 0.0 10211651
20:00+16ю22362 0.0 102111
8 мая, сб
сб823:00+14ююв223895 0.0 102111
02:00+12ююв2243100 0.0 102110
05:00+11юв2244100 0.0 102111
08:00+15юв2338100 0.0 1021212
11:00+19вюв332791 0.0 10191341
14:00+21вюв3322100 0.0 10182351
17:00+21вюв2322100 0.0 10172715
20:00+17вюв3435100 0.0 101656
9 мая, вс
вс923:00+16ююв1133100 0.0 101613
02:00+14зсз4644100 0.0 1015134
05:00+12зсз2359100 0.2 101579
08:00+14с71048100 0.2 1014326
11:00+19ссв793867 0.2 10131078
14:00+22всв7830100 0.0 10122785
17:00+20св6940100 0.0 10121537
20:00+16св5114783 0.0 1014385
10 мая, пн
пн1023:00+14ссв512515 0.0 1015386
02:00+14ссв61154100 0.0 1015695
05:00+13ссв7126196 0.0 1016641
08:00+12св71280100 0.0 1017895
11:00+13ссв61281100 0.1 1020844
14:00+15св6972100 0.1 1021839
17:00+15св465943 0.1 1022789
20:00+15с226099 0.0 102322